{"data":{"norad_id":63877,"epoch":"2026-09-20T17:36:57.673440Z","epoch_age_seconds":126763,"freshness":"FRESH","line1":"1 63877U 25094P   26263.73400085  .00016957  00000+0  59253-3 0  9991","line2":"2 63877  70.0000 100.4995 0002089 274.1295  85.9642 15.29606977 76477","mean_motion":15.29606977,"eccentricity":0.0002089,"inclination_deg":70,"raan_deg":100.4995,"arg_perigee_deg":274.1295,"mean_anomaly_deg":85.9642,"bstar":0.00059253,"rev_number":7647,"period_min":94.141830002911,"perigee_km":475.55426598719,"apogee_km":478.41833650245,"semimajor_km":6855.1233012448,"source":"CELESTRAK","updated_at":"2026-09-21T09:00:35.139786Z"}}